| time (UTC) | temp F | wind direction | speed knots | gust knots | rain 1hr in | rain 24hr in | rain mn in | humidity % | barometer mb |
| 20260507044903 | 46 | 147 | 1.7 | 1.7 | 0.00 | 0.00 | 0.00 | 95 | 1013.1 |
| 20260507034903 | 46 | 165 | 0.9 | 0.9 | 0.00 | 0.00 | 0.00 | 96 | 1012.7 |
| 20260507024904 | 47 | 161 | 0.9 | 0.0 | 0.04 | 0.00 | 0.00 | 95 | 1012.5 |
| 20260507014903 | 47 | 127 | 3.5 | 5.2 | 0.00 | 0.00 | 0.00 | 96 | 1012.1 |
| 20260506234903 | 47 | 135 | 1.7 | 1.7 | 0.00 | 0.00 | 0.00 | 94 | 1012.0 |
| 20260506224903 | 47 | 218 | 0.9 | 0.9 | 0.00 | 0.00 | 0.00 | 94 | 1011.9 |
| 20260506214903 | 48 | 150 | 1.7 | 1.7 | 0.00 | 0.00 | 0.00 | 94 | 1011.7 |
| 20260506204903 | 47 | 211 | 0.0 | 0.0 | 0.00 | 0.00 | 0.00 | 95 | 1011.6 |
| 20260506194903 | 46 | 180 | 0.9 | 0.9 | 0.00 | 0.00 | 0.00 | 95 | 1011.1 |
| 20260506184903 | 46 | 0 | 0.0 | 0.0 | 0.00 | 0.00 | 0.00 | 92 | 1010.5 |
| 20260506174903 | 48 | 250 | 0.9 | 2.6 | 0.00 | 0.00 | 0.00 | 90 | 1010.0 |
| 20260506164903 | 47 | 134 | 3.5 | 4.3 | 0.07 | 0.00 | 0.00 | 87 | 1010.0 |
| 20260506154903 | 51 | 216 | 0.9 | 0.9 | 0.02 | 0.00 | 0.00 | 74 | 1009.2 |
| 20260506144903 | 59 | 313 | 1.7 | 3.5 | 0.00 | 0.00 | 0.00 | 62 | 1007.1 |
| 20260506134903 | 57 | 12 | 3.5 | 2.6 | 0.00 | 0.00 | 0.00 | 70 | 1007.1 |
| 20260506124903 | 56 | 255 | 0.9 | 0.9 | 0.00 | 0.00 | 0.00 | 69 | 1007.8 |
| 20260506114903 | 59 | 294 | 4.3 | 4.3 | 0.00 | 0.00 | 0.00 | 65 | 1006.6 |
| 20260506104903 | 60 | 301 | 1.7 | 2.6 | 0.00 | 0.00 | 0.00 | 59 | 1006.6 |
| 20260506094904 | 60 | 352 | 6.1 | 3.5 | 0.00 | 0.00 | 0.00 | 60 | 1007.0 |
| 20260506084903 | 56 | 34 | 1.7 | 1.7 | 0.00 | 0.00 | 0.00 | 71 | 1007.5 |